| time (UTC) | temp F | wind direction | speed knots | gust knots | rain 1hr in | rain 24hr in | rain mn in | humidity % | barometer mb |
| 20260905051535 | 68 | 90 | 1.7 | 3.5 | 0.00 | 0.41 | 0.00 | 96 | 1014.7 |
| 20260905050515 | 68 | 0.0 | 0.0 | 0.00 | 0.41 | 0.00 | 97 | 1014.5 | |
| 20260905045516 | 69 | 0.0 | 0.0 | 0.00 | 0.41 | 0.41 | 97 | 1014.4 | |
| 20260905044516 | 69 | 0.0 | 0.0 | 0.00 | 0.41 | 0.41 | 96 | 1014.5 | |
| 20260905043516 | 69 | 0.0 | 0.0 | 0.00 | 0.41 | 0.41 | 96 | 1014.5 | |
| 20260905042516 | 69 | 68 | 1.7 | 3.5 | 0.00 | 0.41 | 0.41 | 96 | 1014.6 |
| 20260905041536 | 69 | 0.0 | 0.0 | 0.00 | 0.41 | 0.41 | 96 | 1014.2 | |
| 20260905040516 | 69 | 45 | 0.9 | 3.5 | 0.00 | 0.42 | 0.41 | 96 | 1014.4 |
| 20260905035516 | 69 | 68 | 2.6 | 4.3 | 0.00 | 0.43 | 0.41 | 96 | 1014.4 |
| 20260905034536 | 69 | 225 | 1.7 | 2.6 | 0.00 | 0.43 | 0.41 | 96 | 1014.2 |
| 20260905033516 | 69 | 270 | 2.6 | 5.2 | 0.00 | 0.43 | 0.41 | 95 | 1014.3 |
| 20260905032516 | 70 | 0.0 | 0.0 | 0.00 | 0.43 | 0.41 | 93 | 1014.4 | |
| 20260905031516 | 70 | 45 | 1.7 | 2.6 | 0.00 | 0.43 | 0.41 | 92 | 1014.4 |
| 20260905030516 | 71 | 158 | 0.9 | 3.5 | 0.00 | 0.43 | 0.41 | 92 | 1014.4 |
| 20260905025538 | 71 | 0.0 | 0.0 | 0.00 | 0.43 | 0.41 | 92 | 1014.3 | |
| 20260905024516 | 71 | 0.0 | 0.0 | 0.00 | 0.43 | 0.41 | 93 | 1014.2 | |
| 20260905023516 | 71 | 0.0 | 1.7 | 0.00 | 0.43 | 0.41 | 94 | 1014.2 | |
| 20260905022516 | 70 | 45 | 1.7 | 3.5 | 0.00 | 0.43 | 0.41 | 95 | 1014.2 |
| 20260905021516 | 71 | 270 | 1.7 | 2.6 | 0.00 | 0.43 | 0.41 | 94 | 1014.2 |
| 20260905020556 | 72 | 0.0 | 1.7 | 0.00 | 0.43 | 0.41 | 92 | 1014.2 | |
| 20260905015516 | 73 | 0.0 | 0.0 | 0.00 | 0.43 | 0.41 | 91 | 1014.2 | |
| 20260905014516 | 73 | 0.0 | 0.0 | 0.00 | 0.43 | 0.41 | 91 | 1014.3 | |
| 20260905013516 | 73 | 90 | 1.7 | 3.5 | 0.00 | 0.43 | 0.41 | 91 | 1014.2 |
| 20260905012516 | 73 | 90 | 0.9 | 2.6 | 0.00 | 0.43 | 0.41 | 91 | 1014.4 |
| 20260905011536 | 73 | 0.0 | 1.7 | 0.00 | 0.43 | 0.41 | 90 | 1014.2 | |
| 20260905010516 | 73 | 0.0 | 1.7 | 0.00 | 0.43 | 0.41 | 91 | 1014.1 | |
| 20260905005516 | 73 | 68 | 1.7 | 2.6 | 0.00 | 0.43 | 0.41 | 91 | 1013.9 |
| 20260905004516 | 74 | 0.0 | 2.6 | 0.00 | 0.43 | 0.41 | 89 | 1014.0 | |
| 20260905003516 | 75 | 0.0 | 0.0 | 0.00 | 0.43 | 0.41 | 87 | 1013.9 | |
| 20260905002516 | 76 | 0.0 | 0.0 | 0.00 | 0.43 | 0.41 | 85 | 1013.6 | |
| 20260905001516 | 76 | 0.0 | 0.0 | 0.00 | 0.43 | 0.41 | 85 | 1013.6 | |
| 20260905000516 | 77 | 0.0 | 1.7 | 0.00 | 0.43 | 0.41 | 84 | 1013.3 | |
| 20260904235516 | 77 | 0.0 | 1.7 | 0.00 | 0.43 | 0.41 | 84 | 1013.2 | |
| 20260904234515 | 77 | 225 | 1.7 | 3.5 | 0.00 | 0.43 | 0.41 | 86 | 1013.3 |
| 20260904233536 | 77 | 270 | 0.9 | 3.5 | 0.00 | 0.43 | 0.41 | 86 | 1013.3 |
| 20260904232535 | 77 | 270 | 1.7 | 5.2 | 0.00 | 0.43 | 0.41 | 84 | 1013.3 |
| 20260904231515 | 77 | 248 | 1.7 | 5.2 | 0.00 | 0.43 | 0.41 | 86 | 1013.4 |
| 20260904230515 | 76 | 270 | 1.7 | 3.5 | 0.00 | 0.43 | 0.41 | 88 | 1013.3 |
| 20260904225516 | 75 | 270 | 1.7 | 5.2 | 0.00 | 0.43 | 0.41 | 91 | 1013.5 |
| 20260904224515 | 74 | 225 | 1.7 | 5.2 | 0.00 | 0.43 | 0.41 | 91 | 1013.5 |
| 20260904223515 | 75 | 225 | 2.6 | 4.3 | 0.00 | 0.43 | 0.41 | 90 | 1013.5 |
| 20260904222515 | 75 | 248 | 2.6 | 7.0 | 0.00 | 0.43 | 0.41 | 91 | 1013.4 |
| 20260904221515 | 75 | 248 | 3.5 | 7.0 | 0.00 | 0.43 | 0.41 | 91 | 1013.4 |
| 20260904220516 | 76 | 248 | 0.9 | 3.5 | 0.00 | 0.43 | 0.41 | 92 | 1013.2 |
| 20260904215535 | 76 | 0.0 | 0.9 | 0.00 | 0.43 | 0.41 | 90 | 1012.8 | |
| 20260904214515 | 76 | 293 | 0.9 | 2.6 | 0.00 | 0.43 | 0.41 | 90 | 1012.5 |
| 20260904213516 | 76 | 248 | 0.9 | 2.6 | 0.00 | 0.43 | 0.41 | 92 | 1012.9 |
| 20260904212535 | 76 | 225 | 1.7 | 3.5 | 0.00 | 0.43 | 0.41 | 94 | 1012.8 |
| 20260904211515 | 76 | 225 | 3.5 | 8.7 | 0.00 | 0.43 | 0.41 | 96 | 1013.4 |
| 20260904210515 | 76 | 0.0 | 0.9 | 0.00 | 0.43 | 0.41 | 97 | 1013.2 | |
| 20260904205556 | 76 | 270 | 1.7 | 3.5 | 0.00 | 0.43 | 0.41 | 96 | 1013.1 |
| 20260904204537 | 76 | 248 | 2.6 | 5.2 | 0.00 | 0.43 | 0.41 | 96 | 1013.4 |
| 20260904203517 | 76 | 225 | 1.7 | 2.6 | 0.00 | 0.43 | 0.41 | 96 | 1013.2 |
| 20260904202535 | 77 | 0.0 | 0.0 | 0.00 | 0.43 | 0.41 | 96 | 1012.8 | |
| 20260904201515 | 77 | 0.0 | 0.0 | 0.00 | 0.43 | 0.41 | 96 | 1013.3 | |
| 20260904200517 | 77 | 0.0 | 0.9 | 0.00 | 0.43 | 0.41 | 96 | 1013.0 | |
| 20260904195535 | 77 | 0.0 | 2.6 | 0.00 | 0.43 | 0.41 | 96 | 1012.9 | |
| 20260904194535 | 76 | 135 | 0.9 | 4.3 | 0.00 | 0.43 | 0.41 | 96 | 1012.9 |
| 20260904193515 | 76 | 135 | 2.6 | 3.5 | 0.00 | 0.43 | 0.41 | 96 | 1013.0 |
| 20260904192515 | 75 | 0.0 | 1.7 | 0.00 | 0.43 | 0.41 | 96 | 1013.0 | |
| 20260904191515 | 75 | 135 | 1.7 | 3.5 | 0.00 | 0.43 | 0.41 | 96 | 1013.0 |
| 20260904190515 | 74 | 225 | 0.9 | 2.6 | 0.00 | 0.43 | 0.41 | 96 | 1013.5 |
| 20260904185515 | 74 | 248 | 1.7 | 2.6 | 0.00 | 0.43 | 0.41 | 95 | 1013.5 |
| 20260904184517 | 74 | 0.0 | 1.7 | 0.01 | 0.43 | 0.41 | 96 | 1013.6 | |
| 20260904183515 | 75 | 248 | 1.7 | 4.3 | 0.03 | 0.43 | 0.41 | 96 | 1013.5 |
| 20260904182515 | 75 | 270 | 1.7 | 3.5 | 0.03 | 0.43 | 0.41 | 96 | 1013.5 |
| 20260904181515 | 75 | 158 | 1.7 | 4.3 | 0.04 | 0.43 | 0.41 | 96 | 1013.6 |
| 20260904180515 | 76 | 135 | 2.6 | 5.2 | 0.05 | 0.43 | 0.41 | 96 | 1013.8 |
| 20260904175515 | 76 | 135 | 3.5 | 8.7 | 0.06 | 0.43 | 0.41 | 96 | 1013.9 |
| 20260904174515 | 76 | 270 | 0.9 | 2.6 | 0.20 | 0.42 | 0.40 | 96 | 1014.7 |
| 20260904173517 | 76 | 158 | 0.9 | 2.6 | 0.31 | 0.40 | 0.38 | 96 | 1014.5 |
| 20260904172517 | 76 | 158 | 0.9 | 4.3 | 0.32 | 0.40 | 0.38 | 96 | 1014.1 |
| 20260904171517 | 76 | 158 | 2.6 | 6.1 | 0.31 | 0.39 | 0.37 | 95 | 1014.2 |
| 20260904170517 | 76 | 113 | 3.5 | 7.0 | 0.30 | 0.38 | 0.36 | 94 | 1014.1 |
| 20260904165517 | 77 | 113 | 6.1 | 9.6 | 0.29 | 0.37 | 0.35 | 93 | 1013.8 |
| 20260904164517 | 78 | 135 | 4.3 | 10.4 | 0.14 | 0.22 | 0.20 | 91 | 1014.2 |
| 20260904163517 | 80 | 135 | 4.3 | 10.4 | 0.01 | 0.09 | 0.07 | 86 | 1014.7 |
| 20260904162517 | 81 | 113 | 5.2 | 8.7 | 0.00 | 0.08 | 0.06 | 88 | 1014.6 |
| 20260904161519 | 80 | 135 | 4.3 | 9.6 | 0.00 | 0.10 | 0.06 | 90 | 1014.3 |
| 20260904160517 | 80 | 135 | 5.2 | 8.7 | 0.00 | 0.12 | 0.06 | 88 | 1014.2 |
| 20260904155517 | 79 | 135 | 4.3 | 7.8 | 0.00 | 0.18 | 0.06 | 90 | 1014.3 |
| 20260904154537 | 79 | 113 | 3.5 | 8.7 | 0.01 | 0.22 | 0.06 | 89 | 1014.3 |
| 20260904153517 | 80 | 113 | 3.5 | 6.1 | 0.01 | 0.22 | 0.06 | 91 | 1014.3 |
| 20260904152517 | 78 | 135 | 5.2 | 9.6 | 0.01 | 0.24 | 0.06 | 92 | 1014.0 |
| 20260904151517 | 77 | 113 | 3.5 | 8.7 | 0.01 | 0.26 | 0.06 | 92 | 1014.2 |
| 20260904150517 | 77 | 135 | 5.2 | 8.7 | 0.01 | 0.27 | 0.06 | 90 | 1013.9 |
| 20260904145517 | 79 | 135 | 5.2 | 9.6 | 0.01 | 0.27 | 0.06 | 89 | 1014.0 |
| 20260904144517 | 78 | 113 | 5.2 | 10.4 | 0.00 | 0.27 | 0.05 | 92 | 1014.0 |
| 20260904143517 | 77 | 113 | 5.2 | 7.8 | 0.00 | 0.28 | 0.05 | 94 | 1013.8 |
| 20260904142517 | 76 | 135 | 5.2 | 8.7 | 0.00 | 0.28 | 0.05 | 95 | 1013.7 |
| 20260904141517 | 76 | 113 | 3.5 | 6.1 | 0.00 | 0.28 | 0.05 | 98 | 1013.4 |
| 20260904140517 | 74 | 158 | 2.6 | 4.3 | 0.00 | 0.28 | 0.05 | 97 | 1013.6 |
| 20260904135517 | 74 | 158 | 2.6 | 4.3 | 0.00 | 0.29 | 0.05 | 97 | 1013.5 |
| 20260904134517 | 74 | 90 | 2.6 | 3.5 | 0.00 | 0.31 | 0.05 | 97 | 1013.4 |
| 20260904133517 | 74 | 0.0 | 0.9 | 0.00 | 0.33 | 0.05 | 97 | 1013.6 | |
| 20260904132557 | 74 | 90 | 1.7 | 2.6 | 0.00 | 0.37 | 0.05 | 97 | 1013.5 |
| 20260904131518 | 74 | 90 | 2.6 | 3.5 | 0.00 | 0.39 | 0.05 | 97 | 1013.3 |
| 20260904130516 | 74 | 113 | 1.7 | 2.6 | 0.00 | 0.41 | 0.05 | 97 | 1013.3 |
| 20260904125517 | 74 | 0.0 | 0.0 | 0.00 | 0.45 | 0.05 | 97 | 1013.2 | |
| 20260904124517 | 74 | 90 | 1.7 | 3.5 | 0.00 | 0.47 | 0.05 | 97 | 1013.0 |
| 20260904123517 | 74 | 0.0 | 2.6 | 0.00 | 0.50 | 0.05 | 97 | 1012.9 | |
| 20260904122517 | 74 | 0.0 | 0.0 | 0.00 | 0.51 | 0.05 | 96 | 1012.6 | |
| 20260904121517 | 74 | 0.0 | 0.0 | 0.00 | 0.52 | 0.05 | 96 | 1012.3 | |
| 20260904120517 | 74 | 0.0 | 0.0 | 0.00 | 0.52 | 0.05 | 96 | 1012.4 | |
| 20260904115517 | 74 | 45 | 0.9 | 2.6 | 0.00 | 0.52 | 0.05 | 96 | 1012.5 |
| 20260904114557 | 74 | 0.0 | 0.0 | 0.05 | 0.52 | 0.05 | 96 | 1012.3 | |
| 20260904113518 | 74 | 0.0 | 0.0 | 0.05 | 0.52 | 0.05 | 95 | 1012.4 | |
| 20260904112538 | 74 | 0.0 | 2.6 | 0.05 | 0.52 | 0.05 | 95 | 1012.2 | |
| 20260904111517 | 75 | 180 | 0.9 | 4.3 | 0.05 | 0.52 | 0.05 | 95 | 1012.3 |
| 20260904110537 | 75 | 180 | 2.6 | 5.2 | 0.05 | 0.52 | 0.05 | 95 | 1012.1 |
| 20260904105517 | 75 | 248 | 0.9 | 3.5 | 0.05 | 0.52 | 0.05 | 95 | 1012.3 |
| 20260904104537 | 75 | 315 | 1.7 | 3.5 | 0.00 | 0.47 | 0.00 | 94 | 1012.4 |
| 20260904103518 | 75 | 248 | 0.9 | 2.6 | 0.00 | 0.47 | 0.00 | 94 | 1012.1 |
| 20260904102517 | 75 | 225 | 1.7 | 6.1 | 0.00 | 0.47 | 0.00 | 94 | 1012.1 |
| 20260904101517 | 75 | 225 | 1.7 | 6.1 | 0.00 | 0.47 | 0.00 | 94 | 1012.1 |
| 20260904100517 | 75 | 203 | 0.9 | 4.3 | 0.00 | 0.47 | 0.00 | 95 | 1012.2 |
| 20260904095537 | 76 | 180 | 0.9 | 5.2 | 0.00 | 0.47 | 0.00 | 95 | 1012.1 |
| 20260904094517 | 76 | 0.0 | 1.7 | 0.00 | 0.47 | 0.00 | 95 | 1012.4 | |
| 20260904093517 | 76 | 180 | 0.9 | 2.6 | 0.00 | 0.47 | 0.00 | 95 | 1012.3 |
| 20260904092516 | 76 | 203 | 0.9 | 5.2 | 0.00 | 0.47 | 0.00 | 95 | 1012.4 |
| 20260904091516 | 76 | 180 | 0.9 | 3.5 | 0.00 | 0.47 | 0.00 | 95 | 1012.5 |
| 20260904090517 | 76 | 0.0 | 1.7 | 0.00 | 0.47 | 0.00 | 95 | 1012.5 | |
| 20260904085516 | 76 | 0.0 | 1.7 | 0.00 | 0.47 | 0.00 | 94 | 1012.3 | |
| 20260904084516 | 76 | 225 | 0.9 | 4.3 | 0.00 | 0.47 | 0.00 | 95 | 1012.3 |
| 20260904083558 | 76 | 180 | 1.7 | 3.5 | 0.00 | 0.47 | 0.00 | 95 | 1012.3 |
| 20260904082516 | 76 | 180 | 0.9 | 5.2 | 0.00 | 0.47 | 0.00 | 95 | 1012.3 |
| 20260904081518 | 76 | 225 | 0.9 | 3.5 | 0.00 | 0.47 | 0.00 | 95 | 1012.2 |
| 20260904080516 | 76 | 225 | 1.7 | 7.0 | 0.00 | 0.47 | 0.00 | 95 | 1012.2 |
| 20260904075516 | 76 | 225 | 1.7 | 3.5 | 0.00 | 0.47 | 0.00 | 95 | 1012.1 |
| 20260904074516 | 76 | 203 | 0.9 | 3.5 | 0.00 | 0.47 | 0.00 | 95 | 1012.0 |
| 20260904073518 | 76 | 203 | 0.9 | 4.3 | 0.00 | 0.47 | 0.00 | 95 | 1012.1 |
| 20260904072516 | 76 | 248 | 0.9 | 7.0 | 0.00 | 0.47 | 0.00 | 95 | 1012.0 |
| 20260904071537 | 76 | 225 | 1.7 | 5.2 | 0.00 | 0.47 | 0.00 | 96 | 1011.8 |
| 20260904070536 | 76 | 225 | 1.7 | 5.2 | 0.00 | 0.47 | 0.00 | 96 | 1011.8 |
| 20260904065536 | 76 | 225 | 2.6 | 7.8 | 0.00 | 0.47 | 0.00 | 97 | 1011.8 |
| 20260904064516 | 75 | 225 | 1.7 | 7.0 | 0.00 | 0.47 | 0.00 | 97 | 1011.8 |
| 20260904063518 | 75 | 225 | 0.9 | 3.5 | 0.00 | 0.47 | 0.00 | 97 | 1011.9 |
| 20260904062516 | 75 | 225 | 1.7 | 3.5 | 0.00 | 0.47 | 0.00 | 97 | 1012.0 |
| 20260904061536 | 75 | 225 | 0.9 | 3.5 | 0.00 | 0.47 | 0.00 | 96 | 1012.0 |
| 20260904060516 | 75 | 0.0 | 1.7 | 0.00 | 0.47 | 0.00 | 96 | 1012.1 | |
| 20260904055516 | 75 | 0.0 | 1.7 | 0.00 | 0.47 | 0.00 | 96 | 1012.3 | |
| 20260904054516 | 75 | 0.0 | 3.5 | 0.00 | 0.47 | 0.00 | 96 | 1012.4 | |
| 20260904053536 | 75 | 135 | 2.6 | 3.5 | 0.00 | 0.47 | 0.00 | 96 | 1012.3 |
| 20260904052516 | 75 | 90 | 1.7 | 3.5 | 0.00 | 0.47 | 0.00 | 96 | 1012.6 |